FW3241 Weather Reports


time (UTC)temp
C
wind
direction
speed
KPH
gust
KPH
rain 1hr
cm
rain 24hr
cm
rain mn
cm
humidity
%
barometer
mb
20260504234600 16 214 1.6 8.0 0.00 0.00 0.00 42 1015.6
20260504233106 16 190 1.6 8.0 0.00 0.00 0.00 41 1015.5
20260504231557 16 161 1.6 4.8 0.00 0.00 0.00 40 1015.5
20260504230104 17 180 1.6 4.8 0.00 0.00 0.00 37 1015.4
20260504224555 17 273 1.6 11.3 0.00 0.00 0.00 36 1015.5
20260504223101 18 178 1.6 6.4 0.00 0.00 0.00 31 1015.5
20260504221553 19 191 1.6 4.8 0.00 0.00 0.00 28 1015.4
20260504220052 18 200 1.6 6.4 0.00 0.00 0.00 23 1015.5
20260504214606 18 159 1.6 8.0 0.00 0.00 0.00 22 1015.7
20260504213057 19 198 1.6 11.3 0.00 0.00 0.00 21 1015.8
20260504211552 20 190 1.6 6.4 0.00 0.00 0.00 20 1015.9
20260504210046 20 216 0.0 6.4 0.00 0.00 0.00 21 1016.1
20260504204550 20 187 1.6 8.0 0.00 0.00 0.00 22 1016.1
20260504203045 20 225 1.6 4.8 0.00 0.00 0.00 24 1016.2
20260504201558 20 205 1.6 8.0 0.00 0.00 0.00 23 1016.4
20260504200044 20 246 1.6 8.0 0.00 0.00 0.00 25 1016.5
20260504194541 20 242 1.6 6.4 0.00 0.00 0.00 26 1016.7
20260504193037 19 242 3.2 6.4 0.00 0.00 0.00 27 1017.1
20260504191537 20 242 4.8 8.0 0.00 0.00 0.00 25 1017.3
20260504190033 20 244 3.2 8.0 0.00 0.00 0.00 22 1017.4
20260504184535 20 221 3.2 11.3 0.00 0.00 0.00 20 1017.5
20260504183031 20 217 3.2 8.0 0.00 0.00 0.00 18 1017.6
20260504181532 20 217 1.6 8.0 0.00 0.00 0.00 22 1017.6
20260504180024 19 224 0.0 8.0 0.00 0.00 0.00 25 1017.8
20260504174522 18 211 0.0 8.0 0.00 0.00 0.00 29 1018.1
20260504173017 18 230 3.2 6.4 0.00 0.00 0.00 29 1018.4
20260504171513 17 230 1.6 8.0 0.00 0.00 0.00 30 1018.5
20260504160106 15 206 0.0 3.2 0.00 0.00 0.00 29 1019.5
20260504081505 6 165 0.0 1.6 0.00 0.00 0.00 48 1019.8
20260504044547 7 34 0.0 1.6 0.00 0.00 0.00 37 1020.3
20260504043044 7 34 0.0 1.6 0.00 0.00 0.00 38 1020.4
20260504041542 7 34 0.0 0.0 0.00 0.00 0.00 40 1020.1
20260504040044 7 34 0.0 0.0 0.00 0.00 0.00 38 1020.2
20260504034538 7 34 0.0 1.6 0.00 0.00 0.00 41 1020.2
20260504033049 7 34 0.0 0.0 0.00 0.00 0.00 41 1020.0
20260504031537 8 34 0.0 1.6 0.00 0.00 0.00 39 1020.3
20260504030036 7 34 0.0 0.0 0.00 0.00 0.00 40 1020.3
20260504024545 8 34 0.0 0.0 0.00 0.00 0.00 42 1020.3
20260504023036 8 34 0.0 0.0 0.00 0.00 0.00 42 1020.5
20260504021541 8 34 0.0 0.0 0.00 0.00 0.00 39 1020.5
20260504020034 8 34 0.0 0.0 0.00 0.00 0.00 35 1020.4
20260504014535 8 34 0.0 0.0 0.00 0.00 0.00 37 1020.1
20260504013043 8 34 0.0 0.0 0.00 0.00 0.00 43 1020.1
20260504011534 9 34 0.0 0.0 0.00 0.00 0.00 40 1020.0
20260504010033 9 34 0.0 0.0 0.00 0.00 0.00 39 1020.0
20260504004542 10 34 0.0 1.6 0.00 0.00 0.00 39 1019.8
20260504003032 10 34 0.0 3.2 0.00 0.00 0.00 43 1019.8
20260504001531 10 34 0.0 3.2 0.00 0.00 0.00 43 1019.7
20260504000030 11 33 1.6 4.8 0.00 0.00 0.00 41 1019.7